Regional Weather Roundup
Issued by NWS

Home | Current Version | Previous Version | Text Only | Print | Product List | Glossary Off
Versions: 1 2 3 4 5 6 7 8 9 10 11 12 13 14 15 16 17 18 19 20 21 22 23 24 25 26 27 28 29 30 31 32 33 34 35 36 37 38 39 40 41 42 43 44 45 46 47 48 49 50

000
ASUS43 KBIS 021202
RWRND

NORTH DAKOTA REGIONAL WEATHER ROUNDUP
NATIONAL WEATHER SERVICE BISMARCK ND
600 AM CST FRI DEC 02 2016

NOTE: "FAIR" INDICATES FEW OR NO CLOUDS BELOW 12,000 FEET WITH NO
SIGNIFICANT WEATHER AND/OR OBSTRUCTIONS TO VISIBILITY.


NDZ001>003-009>011-017-021300-
NORTHWEST NORTH DAKOTA

CITY           SKY/WX    TMP DP  RH WIND       PRES   REMARKS
WILLISTON      CLOUDY    28  23  81 CALM      30.16R
6HR MIN TEMP:  28; 6HR MAX TEMP:  29;

MINOT          CLOUDY    26  20  77 SE3       30.17R
MINOT AFB      CLOUDY    25  19  78 S5        30.17R WCI  19
$$

NDZ018>021-031>035-040>046-021300-
SOUTHWEST NORTH DAKOTA

CITY           SKY/WX    TMP DP  RH WIND       PRES   REMARKS
BISMARCK       CLOUDY    25  21  85 CALM      30.20R
6HR MIN TEMP:  25; 6HR MAX TEMP:  27; 6HR PCP: TRACE;

DICKINSON      CLOUDY    21  18  88 S6        30.11R WCI  13
GARRISON         N/A     25  20  81 E5        30.16S WCI  19
6HR MIN TEMP:  24; 6HR MAX TEMP:  26;

HETTINGER ARPT CLOUDY    23  20  88 S3        30.14R
$$

NDZ004>008-012>016-024-026-027-054-021300-
NORTHEAST NORTH DAKOTA

CITY           SKY/WX    TMP DP  RH WIND       PRES   REMARKS
GRAND FORKS    CLOUDY    29  21  72 N8        30.20R
GRND FRKS AFB  CLOUDY    28  21  72 N14       30.20R WCI  17
DEVILS LAKE    CLOUDY    28  22  78 N8        30.19R WCI  20
$$

NDZ022-023-025-028>030-036>039-047>053-021300-
SOUTHEAST NORTH DAKOTA

CITY           SKY/WX    TMP DP  RH WIND       PRES   REMARKS
FARGO          CLOUDY    28  20  71 N9        30.20R WCI  19
6HR MIN TEMP:  28; 6HR MAX TEMP:  30;

JAMESTOWN      CLOUDY    26  20  77 N6        30.18R WCI  19
$$





USA.gov is the U.S. government's official web portal to all federal, state and local government web resources and services.